[[{"header":{"parameterUnit":"m.s-1","parameterCategory":1,"la1":30.2991,"la2":30.254,"lo1":-89.0895,"lo2":-89.0444,"dy":0.0017,"dx":0.0017,"nx":28,"ny":28,"refTime":"2024-06-10T09:00:00:Z","depth":0,"parameterNumber":2,"parameterNumberName":"U-component_of_WINDS"},"data":[0,0,0,0,0,0,0,0,0,0,0,0,0,0,0,0,0,0,0,0,0,0,0,0,0,0,0,0,0,0,0,0,0,0,0,0,0,0,0,0,0,0,0,0,0,0,0,0,0,0,0,0,0,0,0,0,0,0,-4.4749,-4.475,0,-4.4844,-4.4845,-4.4846,-4.4765,-4.4761,-4.4758,-4.4755,-4.4844,-4.4849,-4.4855,0,0,0,0,0,0,0,0,0,0,0,0,0,-4.449,-4.4495,-4.4749,-4.4751,-4.4752,-4.4844,-4.4845,-4.4847,-4.4765,-4.4761,-4.4757,-4.4753,-4.4842,-4.4849,-4.4855,0,0,0,0,0,0,0,0,0,0,0,0,0,-4.4595,-4.4497,-4.4749,-4.4722,-4.4721,-4.4844,-4.4846,-4.4847,-4.4766,-4.4761,-4.4756,-4.4751,-4.484,-4.4848,-4.4856,-4.5008,0,0,-4.4881,-4.4885,0,0,0,0,0,0,0,0,-4.4589,-4.4605,-4.4725,-4.4724,-4.4723,-4.4788,-4.4787,-4.4901,-4.4767,-4.4749,-4.4755,-4.4749,-4.4829,-4.4838,-4.4866,-4.5012,-4.5016,-4.4882,-4.4887,-4.4891,-4.4893,0,0,0,0,0,0,0,-4.4582,-4.46,-4.4787,-4.4727,-4.4726,-4.4703,-4.4713,-4.4808,-4.4815,-4.475,-4.4744,-4.4757,-4.4827,-4.4858,-4.4868,-4.5017,-4.4882,-4.4889,-4.4894,-4.4897,-4.5291,-4.5296,0,0,0,0,0,0,-4.4579,-4.4595,-4.4784,-4.4789,-4.4643,-4.4712,-4.4722,-4.4772,-4.4814,-4.4816,-4.4761,-4.4753,-4.4847,-4.4858,-4.487,-4.5049,-4.489,-4.4898,-4.4903,-4.5286,-4.5292,-4.5298,0,0,0,0,0,0,-4.4574,-4.4596,-4.478,-4.4691,-4.4712,-4.4722,-4.4778,-4.4776,-4.4808,-4.4823,-4.4823,-4.4792,-4.4843,-4.4859,-4.4975,-4.5051,-4.4902,-4.4909,-4.5279,-4.5288,-4.5295,-4.541,0,0,0,0,0,0,-4.4567,-4.4595,-4.4654,-4.4693,-4.4718,-4.4885,-4.4783,-4.4782,-4.4823,-4.4813,-4.4852,-4.4854,-4.484,-4.4963,-4.4983,-4.506,-4.4916,-4.5272,-4.5283,-4.5293,-4.5399,-4.5421,-4.544,0,0,0,0,0,-4.4558,-4.4681,-4.4658,-4.4681,-4.4792,-4.4889,-4.4903,-4.4888,-4.483,-4.4888,-4.4898,-4.4852,-4.5041,-4.4975,-4.4997,-4.5078,-4.5267,-4.528,-4.5292,-4.539,-4.5417,-4.5439,0,0,0,0,0,0,-4.4648,-4.4686,-4.466,-4.4801,-4.4843,-4.4875,-4.4948,-4.4917,-4.4974,-4.4962,-4.4938,-4.4947,-4.5069,-4.5086,-4.5012,-4.5227,-4.5144,-4.5161,-4.5211,-4.5237,-4.5257,-4.5248,-4.4923,0,0,0,0,0,-4.4685,-4.4764,-4.4791,-4.4912,-4.4935,-4.4939,-4.498,-4.4966,-4.5007,-4.5023,-4.5042,-4.5082,-4.5149,-4.5194,-4.5258,-4.5402,-4.5408,-4.5469,-4.5489,-4.5506,-4.552,-4.5595,-4.5622,-4.5339,-4.5339,-4.5338,0,0,-4.476,-4.4791,-4.4841,-4.4931,-4.4962,-4.5041,-4.4954,-4.5041,-4.5099,-4.5036,-4.5146,-4.5162,-4.5204,-4.5335,-4.5393,-4.5352,-4.56,-4.5521,-4.5535,-4.5539,-4.5611,-4.5637,-4.5661,-4.5347,-4.5346,-4.5344,0,0,-4.4938,-4.4971,-4.5075,-4.5109,-4.5158,-4.516,-4.5185,-4.5224,-4.5232,-4.5344,-4.5298,-4.5365,-4.5483,-4.5515,-4.5547,-4.574,-4.5699,-4.5762,-4.5866,-4.594,-4.5962,-4.5982,-4.6048,-4.6072,-4.5776,-4.5777,-4.5777,0,-4.5025,-4.5145,-4.5131,-4.5223,-4.5263,-4.5214,-4.5317,-4.535,-4.5416,-4.5443,-4.5398,-4.5545,-4.5571,-4.5707,-4.5755,-4.5783,-4.5808,-4.5755,-4.5961,-4.598,-4.5998,-4.6061,-4.6086,-4.5784,-4.5783,-4.5782,-4.5781,0,-4.5248,-4.5332,-4.541,-4.5479,-4.5528,-4.5625,-4.5623,-4.5675,-4.5656,-4.5663,-4.5776,-4.5805,-4.5873,-4.5906,-4.5887,-4.604,-4.6012,-4.5965,-4.588,-4.6032,-4.6091,-4.6115,-4.5794,-4.5791,-4.5789,-4.5787,0,0,-4.5481,-4.5544,-4.5572,-4.5603,-4.5655,-4.5718,-4.5813,-4.5883,-4.5926,-4.5974,-4.605,-4.6153,-4.6109,-4.6146,-4.6131,-4.6197,-4.6345,-4.614,-4.614,-4.6174,-4.6511,-4.6544,-4.6573,-4.632,-4.6324,-4.6328,-4.6507,0,-4.5658,-4.5826,-4.5818,-4.5973,-4.6049,-4.6005,-4.6087,-4.6126,-4.6136,-4.6199,-4.6208,-4.628,-4.6219,-4.624,-4.6303,-4.6313,-4.6411,-4.6301,-4.6387,-4.639,-4.6374,-4.6604,-4.6639,-4.6806,-4.653,-4.6534,-4.6536,0,-4.5887,-4.5947,-4.6111,-4.6153,-4.6184,-4.6258,-4.6321,-4.6385,-4.6428,-4.643,-4.6472,-4.6447,-4.654,-4.6457,-4.6583,-4.6508,-4.6543,-4.6553,-4.6559,-4.6563,-4.647,-4.6611,-4.6859,-4.6883,-4.6573,-4.657,-4.6567,0,-4.6037,-4.6158,-4.6272,-4.63,-4.6352,-4.6405,-4.6429,-4.6468,-4.6511,-4.6566,-4.6592,-4.6657,-4.6691,-4.674,-4.6732,-4.6673,-4.6859,-4.6776,-4.686,-4.686,-4.6898,-4.6895,-4.7152,-4.6927,-4.6927,-4.6926,-4.6926,0,-4.6234,-4.6335,-4.634,-4.641,-4.6521,-4.6511,-4.6621,-4.6638,-4.6674,-4.6744,-4.671,-4.6775,-4.6763,-4.6827,-4.6822,-4.6925,-4.6942,-4.6943,-4.694,-4.6944,-4.6944,-4.6964,-4.695,-4.6933,-4.6931,-4.693,-4.6929,0,-4.6418,-4.6426,-4.6547,-4.6588,-4.6601,-4.6681,-4.6715,-4.6779,-4.6787,-4.6876,-4.6896,-4.6907,-4.6982,-4.698,-4.7064,-4.706,-4.7187,-4.7172,-4.7173,-4.7168,-4.7251,-4.7242,-4.7527,-4.7562,-4.7319,-4.7321,-4.7323,0,-4.6541,-4.6618,-4.6669,-4.6716,-4.6744,-4.6818,-4.6863,-4.6856,-4.6903,-4.696,-4.7017,-4.709,-4.7146,-4.7268,-4.7281,-4.7345,-4.7329,-4.7425,-4.7338,-4.734,-4.7326,-4.732,-4.7326,-4.744,-4.7443,-4.7445,-4.7447,0,-4.6757,-4.6758,-4.6826,-4.6895,-4.695,-4.7004,-4.7053,-4.7092,-4.709,-4.7144,-4.7222,-4.7267,-4.7355,-4.7426,-4.7489,-4.7509,-4.7477,-4.7475,-4.7497,-4.75,-4.7496,-4.7496,-4.7215,-4.7467,-4.7465,-4.7463,-4.7462,-4.7462,-4.6912,-4.6978,-4.7025,-4.7101,-4.7139,-4.7186,-4.7249,-4.7267,-4.7333,-4.7405,-4.7397,-4.7484,-4.7525,-4.7606,-4.7633,-4.7698,-4.7663,-4.7696,-4.7704,-4.7711,-4.7719,-4.749,-4.7709,-4.7709,-4.7708,-4.7708,-4.7707,0,-4.7123,-4.7152,-4.7223,-4.7295,-4.7354,-4.7325,-4.7378,-4.7428,-4.7506,-4.7549,-4.7608,-4.7697,-4.7766,-4.7787,-4.7853,-4.7901,-4.7888,-4.7919,-4.7912,-4.7917,-4.7747,-4.772,-4.7928,-4.7928,-4.7928,-4.7928,-4.7928,-4.7928,-4.724,-4.735,-4.7358,-4.7486,-4.7513,-4.7601,-4.7633,-4.7676,-4.771,-4.7813,-4.7872,-4.7887,-4.792,-4.7989,-4.8051,-4.8055,-4.8079,-4.8115,-4.8112,-4.7952,-4.793,-4.7908,-4.7882,-4.8121,-4.8122,-4.8276,-4.8278,-4.8279]},{"header":{"parameterUnit":"m.s-1","parameterCategory":1,"la1":30.2991,"la2":30.254,"lo1":-89.0895,"lo2":-89.0444,"dy":0.0017,"dx":0.0017,"nx":28,"ny":28,"refTime":"2024-06-10T09:00:00:Z","depth":0,"parameterNumber":3,"parameterNumberName":"V-component_of_WINDS"},"data":[0,0,0,0,0,0,0,0,0,0,0,0,0,0,0,0,0,0,0,0,0,0,0,0,0,0,0,0,0,0,0,0,0,0,0,0,0,0,0,0,0,0,0,0,0,0,0,0,0,0,0,0,0,0,0,0,0,0,-2.7154,-2.7154,0,-2.715,-2.715,-2.715,-2.712,-2.7119,-2.7119,-2.7118,-2.7112,-2.7112,-2.7113,0,0,0,0,0,0,0,0,0,0,0,0,0,-2.7131,-2.7132,-2.7154,-2.7154,-2.7154,-2.715,-2.715,-2.715,-2.712,-2.7119,-2.7118,-2.7118,-2.7112,-2.7112,-2.7113,0,0,0,0,0,0,0,0,0,0,0,0,0,-2.7135,-2.7132,-2.7154,-2.7139,-2.7137,-2.715,-2.715,-2.715,-2.712,-2.7119,-2.7118,-2.7117,-2.7111,-2.7112,-2.7113,-2.714,0,0,-2.7115,-2.7116,0,0,0,0,0,0,0,0,-2.7135,-2.7136,-2.7141,-2.714,-2.7138,-2.7135,-2.714,-2.7146,-2.7121,-2.7127,-2.7118,-2.7117,-2.712,-2.712,-2.7122,-2.7139,-2.7139,-2.7115,-2.7116,-2.7116,-2.7116,0,0,0,0,0,0,0,-2.7135,-2.7136,-2.7152,-2.7141,-2.7139,-2.713,-2.713,-2.7141,-2.7129,-2.7126,-2.7124,-2.7124,-2.7119,-2.7121,-2.7121,-2.7139,-2.7115,-2.7116,-2.7116,-2.7117,-2.7174,-2.7175,0,0,0,0,0,0,-2.7137,-2.7136,-2.7152,-2.7152,-2.7134,-2.7132,-2.7131,-2.7137,-2.7129,-2.7127,-2.7125,-2.7123,-2.712,-2.712,-2.7121,-2.7149,-2.7116,-2.7117,-2.7117,-2.7173,-2.7174,-2.7176,0,0,0,0,0,0,-2.7137,-2.7139,-2.7153,-2.7144,-2.7145,-2.7133,-2.714,-2.7137,-2.7139,-2.7128,-2.7126,-2.7129,-2.7119,-2.712,-2.7134,-2.7149,-2.7117,-2.7118,-2.7172,-2.7173,-2.7175,-2.7208,0,0,0,0,0,0,-2.7136,-2.7139,-2.7151,-2.7144,-2.7145,-2.7168,-2.7141,-2.7138,-2.7141,-2.7138,-2.7132,-2.713,-2.7119,-2.7133,-2.7135,-2.7149,-2.7118,-2.717,-2.7173,-2.7174,-2.7206,-2.7211,-2.7215,0,0,0,0,0,-2.7136,-2.716,-2.7151,-2.7153,-2.7159,-2.7169,-2.7169,-2.7157,-2.7142,-2.7152,-2.7145,-2.713,-2.7147,-2.7135,-2.7137,-2.7152,-2.717,-2.7172,-2.7174,-2.7204,-2.721,-2.7215,0,0,0,0,0,0,-2.7169,-2.7159,-2.7149,-2.7173,-2.7172,-2.7164,-2.7177,-2.7164,-2.7166,-2.7163,-2.7146,-2.7145,-2.7162,-2.7158,-2.7145,-2.7175,-2.7155,-2.7158,-2.7177,-2.7183,-2.7187,-2.7188,-2.7119,0,0,0,0,0,-2.7179,-2.7188,-2.7179,-2.72,-2.72,-2.7189,-2.7192,-2.7182,-2.718,-2.7179,-2.7173,-2.7171,-2.7175,-2.7179,-2.7183,-2.7205,-2.7201,-2.7215,-2.722,-2.7224,-2.7226,-2.7234,-2.724,-2.7183,-2.7183,-2.7183,0,0,-2.7199,-2.7195,-2.7203,-2.7207,-2.7205,-2.7213,-2.7189,-2.7199,-2.7205,-2.7181,-2.7194,-2.7189,-2.7185,-2.7203,-2.721,-2.72,-2.7241,-2.7227,-2.723,-2.723,-2.7237,-2.7243,-2.7248,-2.7185,-2.7185,-2.7184,0,0,-2.7241,-2.724,-2.7257,-2.7255,-2.7252,-2.7243,-2.7247,-2.7241,-2.7236,-2.7249,-2.7231,-2.7236,-2.7245,-2.7242,-2.7242,-2.7279,-2.7264,-2.7281,-2.7305,-2.7313,-2.7317,-2.7321,-2.7332,-2.7337,-2.7283,-2.7283,-2.7283,0,-2.7267,-2.7281,-2.7267,-2.7278,-2.7279,-2.7257,-2.7272,-2.7271,-2.7269,-2.727,-2.7259,-2.7267,-2.7263,-2.7279,-2.7288,-2.7289,-2.7291,-2.7281,-2.7318,-2.7322,-2.7325,-2.7335,-2.734,-2.7285,-2.7285,-2.7285,-2.7285,0,-2.7312,-2.7321,-2.7334,-2.7333,-2.7335,-2.7349,-2.7335,-2.7339,-2.7327,-2.7319,-2.7331,-2.7325,-2.7326,-2.7329,-2.7318,-2.7342,-2.7335,-2.7321,-2.7301,-2.7333,-2.7342,-2.7346,-2.7288,-2.7287,-2.7287,-2.7286,0,0,-2.7376,-2.7365,-2.737,-2.7368,-2.7361,-2.7367,-2.7378,-2.7379,-2.7382,-2.738,-2.7388,-2.7394,-2.738,-2.738,-2.7368,-2.7376,-2.7403,-2.7361,-2.736,-2.7367,-2.7425,-2.7435,-2.744,-2.7393,-2.7394,-2.7394,-2.7425,0,-2.7415,-2.7434,-2.742,-2.7441,-2.7447,-2.7425,-2.7434,-2.743,-2.7422,-2.7425,-2.7416,-2.742,-2.7403,-2.7402,-2.7408,-2.7398,-2.7414,-2.7396,-2.7398,-2.7398,-2.7399,-2.7445,-2.7457,-2.7486,-2.7429,-2.7429,-2.743,0,-2.7464,-2.7464,-2.7486,-2.7475,-2.7477,-2.7486,-2.7484,-2.7488,-2.7481,-2.7475,-2.7473,-2.7458,-2.7466,-2.7446,-2.7455,-2.7443,-2.7442,-2.7437,-2.7438,-2.7437,-2.7416,-2.7445,-2.7495,-2.7499,-2.7436,-2.7435,-2.7435,0,-2.7507,-2.7512,-2.7525,-2.7524,-2.7513,-2.7519,-2.7514,-2.7507,-2.7507,-2.7505,-2.7504,-2.7503,-2.7502,-2.75,-2.7485,-2.7472,-2.7494,-2.7474,-2.7487,-2.7488,-2.7493,-2.7493,-2.7543,-2.7494,-2.7494,-2.7494,-2.7494,0,-2.7552,-2.7565,-2.7544,-2.7552,-2.7565,-2.7547,-2.756,-2.7553,-2.7546,-2.7551,-2.7531,-2.7535,-2.7515,-2.7516,-2.7504,-2.7512,-2.7512,-2.7505,-2.7501,-2.7506,-2.7507,-2.7506,-2.7503,-2.7495,-2.7495,-2.7495,-2.7495,0,-2.7602,-2.7589,-2.7601,-2.7588,-2.7585,-2.7595,-2.7583,-2.7589,-2.7578,-2.7584,-2.7584,-2.7568,-2.7568,-2.7552,-2.7549,-2.7541,-2.7553,-2.7546,-2.7555,-2.7553,-2.7566,-2.7565,-2.7617,-2.7622,-2.7571,-2.7572,-2.7572,0,-2.7632,-2.7641,-2.7629,-2.763,-2.7627,-2.763,-2.7629,-2.7611,-2.7612,-2.7603,-2.7609,-2.7608,-2.7606,-2.7607,-2.7594,-2.759,-2.7583,-2.7601,-2.7582,-2.7586,-2.7581,-2.758,-2.758,-2.7605,-2.7606,-2.7606,-2.7606,0,-2.7684,-2.7676,-2.7677,-2.7675,-2.7675,-2.7672,-2.7668,-2.767,-2.765,-2.7651,-2.7651,-2.7649,-2.7645,-2.7643,-2.7637,-2.763,-2.7614,-2.7612,-2.7615,-2.762,-2.7624,-2.762,-2.7565,-2.7611,-2.7611,-2.761,-2.761,-2.761,-2.7724,-2.773,-2.7722,-2.7723,-2.7717,-2.7713,-2.7717,-2.7706,-2.7706,-2.7702,-2.769,-2.7692,-2.7682,-2.7672,-2.7666,-2.7665,-2.7656,-2.766,-2.7661,-2.7662,-2.7664,-2.7625,-2.7664,-2.7664,-2.7664,-2.7664,-2.7663,0,-2.7774,-2.7767,-2.7768,-2.7762,-2.7762,-2.7747,-2.7741,-2.7741,-2.7742,-2.7735,-2.7733,-2.7731,-2.7728,-2.7713,-2.7708,-2.771,-2.7702,-2.7709,-2.7709,-2.7707,-2.7674,-2.7671,-2.7715,-2.7715,-2.7715,-2.7715,-2.7715,-2.7715,-2.7801,-2.781,-2.78,-2.7805,-2.7797,-2.7799,-2.7796,-2.7791,-2.7784,-2.7783,-2.7781,-2.7771,-2.776,-2.7753,-2.7749,-2.7745,-2.7743,-2.7752,-2.7745,-2.7714,-2.7709,-2.7705,-2.7702,-2.7752,-2.7752,-2.7778,-2.7778,-2.7779]}]]